TimeMST,TemperatureF,Dew PointF,Humidity,Sea Level PressureIn,VisibilityMPH,Wind Direction,Wind SpeedMPH,Gust SpeedMPH,PrecipitationIn,Events,Conditions,WindDirDegrees,DateUTC
12:56 AM,27.0,25.0,92,30.17,-9999.0,Calm,Calm,-,N/A,,Unknown,0,2012-11-19 07:56:00
1:56 AM,27.0,24.1,89,30.17,-9999.0,Calm,Calm,-,N/A,,Unknown,0,2012-11-19 08:56:00
2:56 AM,27.0,24.1,89,30.17,-9999.0,Calm,Calm,-,N/A,,Unknown,0,2012-11-19 09:56:00
3:56 AM,28.0,25.0,88,30.18,-9999.0,Calm,Calm,-,0.01,,Unknown,0,2012-11-19 10:56:00
4:56 AM,28.0,25.0,88,30.19,-9999.0,Variable,3.5,-,N/A,,Unknown,0,2012-11-19 11:56:00
5:56 AM,28.0,25.0,88,30.21,-9999.0,Calm,Calm,-,N/A,,Unknown,0,2012-11-19 12:56:00
6:56 AM,30.0,26.1,85,30.21,-9999.0,Calm,Calm,-,N/A,,Unknown,0,2012-11-19 13:56:00
7:56 AM,30.0,26.1,85,30.24,-9999.0,Calm,Calm,-,N/A,,Unknown,0,2012-11-19 14:56:00
8:56 AM,30.0,27.0,88,30.26,-9999.0,Calm,Calm,-,N/A,,Unknown,0,2012-11-19 15:56:00
9:56 AM,30.9,27.0,85,30.27,-9999.0,Calm,Calm,-,N/A,,Unknown,0,2012-11-19 16:56:00
10:56 AM,32.0,27.0,82,30.29,-9999.0,Variable,3.5,-,N/A,,Unknown,0,2012-11-19 17:56:00
11:56 AM,32.0,27.0,82,30.28,-9999.0,Calm,Calm,-,N/A,,Unknown,0,2012-11-19 18:56:00
12:56 PM,33.1,28.0,82,30.26,-9999.0,Calm,Calm,-,N/A,,Unknown,0,2012-11-19 19:56:00
1:56 PM,33.1,28.0,82,30.27,-9999.0,Variable,3.5,-,N/A,,Unknown,0,2012-11-19 20:56:00
2:56 PM,33.1,28.9,85,30.26,-9999.0,Calm,Calm,-,N/A,,Unknown,0,2012-11-19 21:56:00
3:56 PM,33.1,28.0,82,30.25,-9999.0,Variable,4.6,-,0.01,,Unknown,0,2012-11-19 22:56:00
4:56 PM,32.0,28.9,88,30.27,-9999.0,Variable,3.5,-,N/A,,Unknown,0,2012-11-19 23:56:00
5:56 PM,33.1,28.9,85,30.26,-9999.0,Variable,3.5,-,N/A,,Unknown,0,2012-11-20 00:56:00
6:56 PM,33.1,28.9,85,30.25,-9999.0,Calm,Calm,-,N/A,,Unknown,0,2012-11-20 01:56:00
7:56 PM,32.0,28.9,88,30.25,-9999.0,Calm,Calm,-,N/A,,Unknown,0,2012-11-20 02:56:00
8:56 PM,33.1,30.0,89,30.23,-9999.0,Calm,Calm,-,N/A,,Unknown,0,2012-11-20 03:56:00
9:56 PM,33.1,28.9,85,30.23,-9999.0,Calm,Calm,-,N/A,,Unknown,0,2012-11-20 04:56:00
10:56 PM,33.1,28.9,85,30.21,-9999.0,Calm,Calm,-,N/A,,Unknown,0,2012-11-20 05:56:00
11:56 PM,33.1,30.0,89,30.23,-9999.0,Variable,3.5,-,N/A,,Unknown,0,2012-11-20 06:56:00